Group_ship,Cruise,JD_GMT,Date_DDMMYYYY,TIME_HH:MM:SS,Lat_dec_degree,Long_dec_degree,xCO2eq_ppm,xCO2a_ppm,Pres_Equi_hPa,Pres_sealevel_hPa,EqTemp_C,SST(TSG)_C,Sal(TSG)_Permil,Water_flow_l/min,Gasflow_IR_ml/min,Temp_IR_C,Pres_IR_hPa,Ship_heading_true_degree,Ship_speed_knot,Wind_dir_rel_degree,Wind_speed_rel_m/s,fCO2W@SST_uatm,Qcflag_water,fCO2a_uatm,Qcflag_air,dfCO2_uatm,Fluoro_ug/l,Wind_speed_true_m/s,Wind_dir_true_degree,Air_temp_C,Oxygen
AOML_Explorer,Ex0707W,43.000,11022007,23:59:55,25.511,-80.008,366.66,-9.00,1019.96,1016.30,25.54,25.70,36.164,2.144,78.394,31.834,1019.96,181.600,17.900,310.000,14.412,358.70,2,-9.00,9,-9.00,0.08,11.57,88.65,22.82,231.75
AOML_Explorer,Ex0707W,43.015,12022007,0:21:40,25.400,-80.010,363.10,-9.00,1019.72,1016.10,24.62,24.89,36.200,2.136,78.463,31.919,1019.72,177.300,19.100,308.000,15.441,357.27,2,-9.00,9,-9.00,0.08,12.26,85.37,22.98,231.91
AOML_Explorer,Ex0707W,43.017,12022007,0:24:13,25.387,-80.011,363.22,-9.00,1019.90,1016.30,24.67,25.04,36.199,2.119,78.172,31.926,1019.90,185.700,19.000,309.000,14.926,358.89,2,-9.00,9,-9.00,0.08,11.65,93.55,22.96,232.34
AOML_Explorer,Ex0707W,43.019,12022007,0:26:46,25.374,-80.013,362.39,-9.00,1019.86,1016.10,24.82,25.00,36.221,2.106,78.115,31.927,1019.86,189.600,18.900,304.000,13.897,355.21,2,-9.00,9,-9.00,0.07,11.85,89.11,23.05,232.52
AOML_Explorer,Ex0707W,43.020,12022007,0:29:19,25.361,-80.016,362.75,-9.00,1019.84,1016.00,24.86,24.97,36.222,2.115,77.877,31.934,1019.84,189.500,18.900,302.000,15.441,354.40,2,-9.00,9,-9.00,0.08,13.35,91.80,23.08,232.59
AOML_Explorer,Ex0707W,43.022,12022007,0:31:52,25.348,-80.019,363.37,-9.00,1020.01,1016.40,24.83,24.94,36.229,2.098,78.259,31.942,1020.01,190.000,18.800,304.000,13.382,355.23,2,-9.00,9,-9.00,0.08,11.51,87.81,23.16,232.27
AOML_Explorer,Ex0707W,43.024,12022007,0:34:25,25.335,-80.021,363.57,-9.00,1019.98,1016.50,24.80,25.31,36.124,2.137,78.238,31.949,1019.98,191.900,18.400,307.000,13.382,361.15,2,-9.00,9,-9.00,0.08,10.88,93.90,23.16,231.71
AOML_Explorer,Ex0707W,43.026,12022007,0:36:58,25.322,-80.024,362.90,-9.00,1019.92,1016.50,24.88,25.48,36.164,2.115,77.862,31.956,1019.92,191.000,18.200,304.000,13.382,361.68,2,-9.00,9,-9.00,0.09,11.27,91.16,23.18,231.04
AOML_Explorer,Ex0707W,43.027,12022007,0:39:31,25.310,-80.028,362.27,-9.00,1019.98,1016.40,25.18,25.50,36.184,2.134,78.199,31.966,1019.98,196.400,18.200,308.000,14.412,356.97,2,-9.00,9,-9.00,0.08,11.52,102.92,23.24,231.37
AOML_Explorer,Ex0707W,43.029,12022007,0:42:04,25.297,-80.032,364.44,-9.00,1020.18,1016.40,25.28,25.46,36.206,2.111,78.080,31.976,1020.18,196.500,18.300,305.000,14.412,357.05,2,-9.00,9,-9.00,0.08,12.10,99.57,23.28,230.89
AOML_Explorer,Ex0707W,43.031,12022007,0:44:37,25.285,-80.036,364.82,-9.00,1020.07,1016.60,25.28,25.40,36.218,2.097,78.307,31.987,1020.07,196.500,18.300,315.000,15.956,356.43,2,-9.00,9,-9.00,0.08,11.64,114.44,22.77,231.10
AOML_Explorer,Ex0707W,43.033,12022007,0:47:10,25.273,-80.040,365.66,-9.00,1020.31,1016.60,25.25,25.42,36.200,2.093,78.230,31.994,1020.31,196.300,18.100,311.000,15.441,358.19,2,-9.00,9,-9.00,0.09,11.88,109.01,22.83,231.05
AOML_Explorer,Ex0707W,43.035,12022007,0:49:43,25.260,-80.044,366.12,-9.00,1020.51,1016.50,25.22,25.42,36.211,2.104,78.349,32.004,1020.51,196.400,18.100,316.000,16.985,359.17,2,-9.00,9,-9.00,0.09,12.29,118.66,22.7,230.61
AOML_Explorer,Ex0707W,43.036,12022007,0:52:16,25.248,-80.048,366.49,-9.00,1020.46,1016.90,25.24,25.35,36.227,2.090,78.629,32.013,1020.46,196.300,18.100,319.000,14.412,358.18,2,-9.00,9,-9.00,0.09,9.72,114.67,22.6,230.97
AOML_Explorer,Ex0707W,43.038,12022007,0:54:49,25.236,-80.052,366.73,-9.00,1020.35,1016.80,25.22,25.35,36.216,2.099,78.700,32.019,1020.35,196.100,18.000,315.000,14.412,358.66,2,-9.00,9,-9.00,0.08,10.40,110.10,22.61,230.64
AOML_Explorer,Ex0707W,43.040,12022007,0:57:22,25.224,-80.056,366.51,-9.00,1020.49,1016.80,25.17,25.39,36.210,2.120,78.886,32.027,1020.49,197.000,17.900,316.000,15.441,359.75,2,-9.00,9,-9.00,0.07,11.11,115.45,22.69,230.85
AOML_Explorer,Ex0707W,43.042,12022007,0:59:55,25.212,-80.060,365.57,-9.00,1020.28,1016.90,25.19,25.41,36.205,2.126,78.899,32.036,1020.28,196.500,17.800,310.000,14.926,358.89,2,-9.00,9,-9.00,0.08,11.69,107.12,22.57,230.88
AOML_Explorer,Ex0707W,43.057,12022007,1:21:40,25.108,-80.095,366.60,-9.00,1020.65,1016.90,25.28,25.44,36.224,2.111,77.854,32.109,1020.65,196.800,17.900,307.000,13.897,359.15,2,-9.00,9,-9.00,0.08,11.35,101.14,22.34,229.84
AOML_Explorer,Ex0707W,43.058,12022007,1:24:13,25.096,-80.099,366.71,-9.00,1020.35,1016.90,25.28,25.44,36.219,2.115,77.821,32.107,1020.35,197.300,17.800,311.000,15.441,359.12,2,-9.00,9,-9.00,0.08,12.01,109.96,22.24,229.83
AOML_Explorer,Ex0707W,43.060,12022007,1:26:46,25.084,-80.103,366.67,-9.00,1020.59,1017.10,25.26,25.41,36.224,2.091,78.254,32.108,1020.59,196.900,17.800,309.000,13.382,359.00,2,-9.00,9,-9.00,0.08,10.70,101.24,22.19,229.99
AOML_Explorer,Ex0707W,43.062,12022007,1:29:19,25.072,-80.107,366.28,-9.00,1020.59,1017.30,25.25,25.36,36.234,2.099,78.199,32.112,1020.59,197.000,17.700,313.000,13.897,357.99,2,-9.00,9,-9.00,0.08,10.44,107.33,22.16,229.80
AOML_Explorer,Ex0707W,43.064,12022007,1:31:52,25.059,-80.111,366.22,-9.00,1020.49,1016.90,25.22,25.32,36.233,2.108,78.330,32.113,1020.49,196.800,17.600,311.000,15.441,357.88,2,-9.00,9,-9.00,0.08,11.97,110.29,22.01,230.01
AOML_Explorer,Ex0707W,43.066,12022007,1:34:25,25.047,-80.115,366.18,-9.00,1020.64,1016.80,25.18,25.32,36.228,2.111,78.527,32.114,1020.64,196.200,17.600,307.000,15.441,358.37,2,-9.00,9,-9.00,0.10,12.52,106.13,21.96,229.96
AOML_Explorer,Ex0707W,43.067,12022007,1:36:58,25.035,-80.119,366.06,-9.00,1020.47,1016.50,25.15,25.29,36.233,2.112,78.776,32.116,1020.47,196.400,17.600,312.000,15.956,358.24,2,-9.00,9,-9.00,0.09,12.12,113.12,21.73,230.02
AOML_Explorer,Ex0707W,43.069,12022007,1:39:31,25.023,-80.123,365.94,-9.00,1020.67,1016.70,25.13,25.28,36.232,2.111,78.749,32.122,1020.67,196.000,17.700,301.000,14.926,358.30,2,-9.00,9,-9.00,0.09,13.01,98.86,21.5,230.02
AOML_Explorer,Ex0707W,43.071,12022007,1:42:04,25.011,-80.127,365.82,-9.00,1020.48,1016.80,25.11,25.30,36.224,2.109,79.074,32.124,1020.48,196.000,17.800,305.000,15.956,358.71,2,-9.00,9,-9.00,0.09,13.17,105.32,21.3,229.78
AOML_Explorer,Ex0707W,43.073,12022007,1:44:37,24.999,-80.131,365.86,-9.00,1020.69,1017.30,25.12,25.32,36.220,2.112,79.012,32.126,1020.69,196.000,17.700,310.000,13.897,359.08,2,-9.00,9,-9.00,0.09,10.70,104.71,21.18,229.64
AOML_Explorer,Ex0707W,43.074,12022007,1:47:10,24.987,-80.134,365.81,-9.00,1020.75,1017.20,25.13,25.31,36.225,2.117,79.066,32.128,1020.75,195.500,17.600,307.000,13.897,358.63,2,-9.00,9,-9.00,0.09,11.12,101.81,21.25,229.35
AOML_Explorer,Ex0707W,43.076,12022007,1:49:43,24.975,-80.138,365.84,-9.00,1020.46,1016.70,25.15,25.32,36.219,2.103,78.897,32.130,1020.46,195.700,17.700,296.000,13.897,358.46,2,-9.00,9,-9.00,0.09,12.91,91.77,21.08,229.60
AOML_Explorer,Ex0707W,43.078,12022007,1:52:16,24.963,-80.142,366.09,-9.00,1020.54,1017.10,25.14,25.35,36.208,2.126,78.933,32.131,1020.54,194.700,17.700,301.000,11.323,359.33,2,-9.00,9,-9.00,0.10,10.21,86.22,20.78,229.59
AOML_Explorer,Ex0707W,43.080,12022007,1:54:49,24.951,-80.145,366.00,-9.00,1020.73,1017.20,25.15,25.38,36.212,2.105,79.202,32.131,1020.73,195.400,17.800,294.000,12.353,359.58,2,-9.00,9,-9.00,0.10,11.99,85.41,20.85,229.68
AOML_Explorer,Ex0707W,43.082,12022007,1:57:22,24.939,-80.149,365.62,-9.00,1021.02,1017.10,25.19,25.38,36.219,2.120,79.228,32.132,1021.02,195.300,17.700,299.000,11.323,358.73,2,-9.00,9,-9.00,0.09,10.53,85.31,21.21,229.44
AOML_Explorer,Ex0707W,43.083,12022007,1:59:55,24.926,-80.153,365.77,-9.00,1020.85,1017.30,25.20,25.38,36.219,2.115,78.978,32.132,1020.85,195.400,17.800,301.000,10.294,358.61,2,-9.00,9,-9.00,0.09,9.61,81.88,21.51,229.50
AOML_Explorer,Ex0707W,43.098,12022007,2:21:40,24.826,-80.199,366.57,-9.00,1020.88,1018.10,25.27,25.42,36.183,2.086,78.220,32.157,1020.88,214.800,18.100,291.000,5.662,358.97,2,-9.00,9,-9.00,0.10,8.98,70.80,22,230.02
AOML_Explorer,Ex0707W,43.100,12022007,2:24:13,24.816,-80.208,366.59,-9.00,1020.96,1018.10,25.26,25.35,36.198,2.107,78.509,32.149,1020.96,219.000,18.100,285.000,4.118,358.06,2,-9.00,9,-9.00,0.10,9.10,64.70,21.99,230.14
AOML_Explorer,Ex0707W,43.102,12022007,2:26:46,24.806,-80.217,365.91,-9.00,1020.83,1018.10,25.22,25.25,36.221,2.097,78.577,32.145,1020.83,219.900,18.000,273.000,5.147,356.57,2,-9.00,9,-9.00,0.10,10.37,69.71,22.13,230.39
AOML_Explorer,Ex0707W,43.104,12022007,2:29:19,24.797,-80.226,365.44,-9.00,1020.84,1018.20,25.14,25.35,36.180,2.117,78.561,32.140,1020.84,223.500,17.900,275.000,4.632,358.70,2,-9.00,9,-9.00,0.09,9.85,71.37,22.08,229.85
AOML_Explorer,Ex0707W,43.105,12022007,2:31:52,24.788,-80.235,365.02,-9.00,1020.81,1018.20,25.10,25.45,36.163,2.119,78.932,32.138,1020.81,224.700,17.800,275.000,3.603,360.34,2,-9.00,9,-9.00,0.09,9.52,66.93,22.11,230.28
AOML_Explorer,Ex0707W,43.107,12022007,2:34:25,24.779,-80.245,364.30,-9.00,1020.77,1018.20,25.20,25.54,36.159,2.124,78.668,32.137,1020.77,224.400,17.800,297.000,2.574,359.60,2,-9.00,9,-9.00,0.11,8.28,60.36,22.19,229.86
AOML_Explorer,Ex0707W,43.109,12022007,2:36:58,24.770,-80.255,364.02,-9.00,1020.69,1018.10,25.29,25.58,36.164,2.132,78.090,32.137,1020.69,225.200,17.800,313.000,3.088,358.48,2,-9.00,9,-9.00,0.11,7.34,62.70,22.25,228.95
AOML_Explorer,Ex0707W,43.111,12022007,2:39:31,24.762,-80.266,365.08,-9.00,1020.68,1018.10,25.36,25.58,36.150,2.084,78.846,32.138,1020.68,235.500,17.800,60.000,0.000,358.40,2,-9.00,9,-9.00,0.10,9.16,55.40,22.21,229.46
AOML_Explorer,Ex0707W,43.113,12022007,2:42:04,24.755,-80.278,365.60,-9.00,1020.57,1018.00,25.39,25.59,36.150,2.126,78.554,32.137,1020.57,241.700,17.800,84.000,1.544,358.64,2,-9.00,9,-9.00,0.09,9.09,51.91,22.22,229.89
AOML_Explorer,Ex0707W,43.114,12022007,2:44:37,24.749,-80.290,364.90,-9.00,1020.54,1018.00,25.39,25.64,36.137,2.088,78.787,32.136,1020.54,240.700,17.700,171.000,1.544,358.46,2,-9.00,9,-9.00,0.09,10.63,59.36,22.21,229.95
AOML_Explorer,Ex0707W,43.116,12022007,2:47:10,24.743,-80.302,364.37,-9.00,1020.48,1017.90,25.41,25.64,36.134,2.085,78.738,32.138,1020.48,240.400,17.700,162.000,1.029,357.72,2,-9.00,9,-9.00,0.12,10.09,58.46,22.18,229.79
AOML_Explorer,Ex0707W,43.118,12022007,2:49:43,24.737,-80.314,364.53,-9.00,1020.48,1017.90,25.43,25.64,36.140,2.078,79.133,32.135,1020.48,240.300,17.800,113.000,0.000,357.61,2,-9.00,9,-9.00,0.12,9.16,60.30,22.24,229.44
AOML_Explorer,Ex0707W,43.120,12022007,2:52:16,24.731,-80.326,364.90,-9.00,1020.51,1018.00,25.44,25.66,36.138,2.092,78.201,32.132,1020.51,240.600,17.700,57.000,1.029,358.03,2,-9.00,9,-9.00,0.12,8.57,54.92,22.38,229.32
AOML_Explorer,Ex0707W,43.121,12022007,2:54:49,24.724,-80.338,365.30,-9.00,1020.54,1018.00,25.45,25.67,36.140,2.098,78.604,32.135,1020.54,240.000,17.800,311.000,1.544,358.45,2,-9.00,9,-9.00,0.12,8.26,68.26,22.35,229.16
AOML_Explorer,Ex0707W,43.123,12022007,2:57:22,24.718,-80.350,365.53,-9.00,1020.61,1018.10,25.46,25.67,36.139,2.092,78.350,32.131,1020.61,240.200,17.600,74.000,0.000,358.58,2,-9.00,9,-9.00,0.12,9.06,60.20,22.42,229.25
AOML_Explorer,Ex0707W,43.125,12022007,2:59:55,24.712,-80.362,365.65,-9.00,1020.60,1018.10,25.47,25.67,36.137,2.077,78.355,32.131,1020.60,240.500,17.700,144.000,0.000,358.58,2,-9.00,9,-9.00,0.11,9.11,60.50,22.44,229.27
AOML_Explorer,Ex0707W,43.140,12022007,3:21:40,24.659,-80.465,364.88,-9.00,1020.46,1017.90,25.43,25.59,36.159,2.060,78.277,32.137,1020.46,238.800,17.600,312.000,1.029,357.12,2,-9.00,9,-9.00,0.09,8.43,64.17,22.75,230.17
AOML_Explorer,Ex0707W,43.142,12022007,3:24:13,24.653,-80.477,364.67,-9.00,1020.47,1018.00,25.42,25.55,36.161,2.061,78.739,32.128,1020.47,238.500,17.500,283.000,2.059,356.59,2,-9.00,9,-9.00,0.08,8.84,71.70,22.83,230.34
AOML_Explorer,Ex0707W,43.144,12022007,3:26:46,24.646,-80.489,364.14,-9.00,1020.50,1018.00,25.39,25.53,36.167,2.045,78.700,32.122,1020.50,239.200,17.400,245.000,1.544,356.26,2,-9.00,9,-9.00,0.09,9.76,67.29,22.82,230.27
AOML_Explorer,Ex0707W,43.145,12022007,3:29:19,24.640,-80.500,363.74,-9.00,1020.57,1018.10,25.36,25.48,36.183,2.043,78.399,32.117,1020.57,238.500,17.300,311.000,1.029,355.64,2,-9.00,9,-9.00,0.08,8.29,64.01,22.78,230.40
AOML_Explorer,Ex0707W,43.147,12022007,3:31:52,24.634,-80.512,363.36,-9.00,1020.62,1018.10,25.33,25.45,36.187,2.012,78.678,32.112,1020.62,238.300,17.200,303.000,1.029,355.27,2,-9.00,9,-9.00,0.08,8.36,64.32,22.79,230.41
AOML_Explorer,Ex0707W,43.149,12022007,3:34:25,24.627,-80.524,363.16,-9.00,1020.69,1018.20,25.30,25.42,36.195,2.069,78.571,32.113,1020.69,237.400,17.500,306.000,3.088,355.18,2,-9.00,9,-9.00,0.08,7.66,76.65,22.86,230.42
AOML_Explorer,Ex0707W,43.151,12022007,3:36:58,24.621,-80.535,363.01,-9.00,1020.78,1018.20,25.26,25.43,36.190,2.068,79.124,32.110,1020.78,238.300,17.200,317.000,3.603,355.68,2,-9.00,9,-9.00,0.08,6.75,80.12,22.88,230.44
AOML_Explorer,Ex0707W,43.152,12022007,3:39:31,24.614,-80.546,362.75,-9.00,1020.92,1018.20,25.25,25.44,36.184,2.015,78.693,32.108,1020.92,237.700,17.300,292.000,4.118,355.91,2,-9.00,9,-9.00,0.08,8.33,85.08,22.75,230.32
AOML_Explorer,Ex0707W,43.154,12022007,3:42:04,24.608,-80.558,362.58,-9.00,1020.96,1018.30,25.25,25.46,36.183,2.030,78.507,32.111,1020.96,236.800,17.200,307.000,5.147,355.94,2,-9.00,9,-9.00,0.08,7.06,92.33,22.64,230.29
AOML_Explorer,Ex0707W,43.156,12022007,3:44:37,24.602,-80.570,362.65,-9.00,1021.06,1018.50,25.27,25.48,36.180,2.039,78.767,32.112,1021.06,241.200,17.400,331.000,3.603,356.10,2,-9.00,9,-9.00,0.08,6.10,78.33,22.36,230.37
AOML_Explorer,Ex0707W,43.158,12022007,3:47:10,24.596,-80.582,362.63,-9.00,1021.06,1018.50,25.28,25.49,36.180,2.019,78.855,32.110,1021.06,240.600,17.600,321.000,4.118,355.98,2,-9.00,9,-9.00,0.08,6.49,84.82,22.15,230.48
AOML_Explorer,Ex0707W,43.160,12022007,3:49:43,24.590,-80.594,362.59,-9.00,1021.01,1018.50,25.30,25.50,36.179,2.013,79.386,32.076,1021.01,241.100,17.400,327.000,1.544,355.85,2,-9.00,9,-9.00,0.08,7.73,67.55,22.17,230.48
AOML_Explorer,Ex0707W,43.161,12022007,3:52:16,24.584,-80.606,362.65,-9.00,1021.02,1018.50,25.31,25.51,36.177,2.043,78.927,32.058,1021.02,241.100,17.500,338.000,3.603,355.86,2,-9.00,9,-9.00,0.08,5.87,75.04,22.09,230.44
AOML_Explorer,Ex0707W,43.163,12022007,3:54:49,24.577,-80.618,362.88,-9.00,1021.08,1018.60,25.32,25.51,36.182,2.022,79.147,32.048,1021.08,237.800,17.400,326.000,3.088,355.90,2,-9.00,9,-9.00,0.08,6.64,73.03,21.85,230.49
AOML_Explorer,Ex0707W,43.165,12022007,3:57:22,24.570,-80.629,363.00,-9.00,1021.09,1018.50,25.32,25.51,36.181,2.012,79.230,32.046,1021.09,234.700,17.400,324.000,4.632,356.05,2,-9.00,9,-9.00,0.08,5.86,82.22,21.85,230.46
AOML_Explorer,Ex0707W,43.167,12022007,3:59:55,24.563,-80.640,363.17,-9.00,1021.05,1018.50,25.32,25.50,36.188,2.048,78.579,32.042,1021.05,234.800,17.500,313.000,3.603,356.01,2,-9.00,9,-9.00,0.08,7.07,76.73,21.79,230.40
AOML_Explorer,Ex0707W,43.182,12022007,4:21:40,24.502,-80.736,363.60,-9.00,1020.74,1017.90,25.35,25.56,36.171,2.056,78.568,32.074,1020.74,235.100,17.800,278.000,5.147,356.78,2,-9.00,9,-9.00,0.09,9.89,86.26,20.83,230.16
AOML_Explorer,Ex0707W,43.183,12022007,4:24:13,24.494,-80.748,363.79,-9.00,1020.50,1017.80,25.35,25.57,36.169,2.055,78.726,32.069,1020.50,234.700,17.600,265.000,4.118,356.95,2,-9.00,9,-9.00,0.09,10.23,78.26,20.81,230.27
AOML_Explorer,Ex0707W,43.185,12022007,4:26:46,24.487,-80.759,363.97,-9.00,1020.35,1017.60,25.36,25.56,36.169,2.028,78.294,32.066,1020.35,234.600,17.800,254.000,4.118,356.85,2,-9.00,9,-9.00,0.09,11.01,75.72,20.81,230.29
AOML_Explorer,Ex0707W,43.187,12022007,4:29:19,24.480,-80.771,364.08,-9.00,1020.29,1017.60,25.37,25.56,36.168,2.031,79.245,32.061,1020.29,234.800,18.000,300.000,5.147,356.83,2,-9.00,9,-9.00,0.09,8.05,88.56,20.77,230.21
AOML_Explorer,Ex0707W,43.189,12022007,4:31:52,24.473,-80.782,364.04,-9.00,1020.36,1017.70,25.36,25.56,36.168,2.039,78.659,32.059,1020.36,234.800,17.900,263.000,4.118,356.85,2,-9.00,9,-9.00,0.09,10.53,77.54,20.88,229.90
AOML_Explorer,Ex0707W,43.191,12022007,4:34:25,24.465,-80.794,364.09,-9.00,1020.36,1017.70,25.36,25.55,36.176,2.026,78.487,32.060,1020.36,234.700,17.900,258.000,3.603,356.87,2,-9.00,9,-9.00,0.09,10.56,74.29,20.91,230.08
AOML_Explorer,Ex0707W,43.192,12022007,4:36:58,24.458,-80.805,364.04,-9.00,1020.45,1017.80,25.36,25.56,36.173,2.054,78.966,32.060,1020.45,238.100,18.000,162.000,0.515,357.02,2,-9.00,9,-9.00,0.09,9.76,57.10,21.13,230.08
AOML_Explorer,Ex0707W,43.194,12022007,4:39:31,24.452,-80.818,363.68,-9.00,1020.20,1017.60,25.36,25.56,36.172,2.039,79.160,32.061,1020.20,239.600,18.100,222.000,2.059,356.54,2,-9.00,9,-9.00,0.09,10.94,66.67,20.94,230.12
AOML_Explorer,Ex0707W,43.196,12022007,4:42:04,24.445,-80.830,363.64,-9.00,1019.81,1017.20,25.37,25.56,36.174,2.031,78.656,32.062,1019.81,239.500,18.000,201.000,2.059,356.26,2,-9.00,9,-9.00,0.09,11.22,63.27,20.91,230.10
AOML_Explorer,Ex0707W,43.198,12022007,4:44:37,24.439,-80.842,363.64,-9.00,1019.79,1017.30,25.36,25.55,36.177,1.998,78.722,32.060,1019.79,240.700,18.000,261.000,0.000,356.13,2,-9.00,9,-9.00,0.10,9.26,60.60,20.91,230.16
AOML_Explorer,Ex0707W,43.199,12022007,4:47:10,24.432,-80.854,363.90,-9.00,1020.19,1017.60,25.36,25.55,36.177,2.016,78.956,32.066,1020.19,239.800,18.100,290.000,2.574,356.47,2,-9.00,9,-9.00,0.09,8.81,75.81,20.99,230.01
AOML_Explorer,Ex0707W,43.201,12022007,4:49:43,24.426,-80.866,363.60,-9.00,1020.13,1017.60,25.36,25.54,36.175,2.043,78.781,32.066,1020.13,240.400,18.100,230.000,1.544,356.16,2,-9.00,9,-9.00,0.09,10.40,66.83,21.07,230.11
AOML_Explorer,Ex0707W,43.203,12022007,4:52:16,24.420,-80.879,363.40,-9.00,1020.04,1017.40,25.35,25.51,36.181,2.005,78.790,32.068,1020.04,240.000,18.100,284.000,0.515,355.63,2,-9.00,9,-9.00,0.09,9.21,63.22,21.25,230.21
AOML_Explorer,Ex0707W,43.205,12022007,4:54:49,24.413,-80.891,363.18,-9.00,1019.65,1017.40,25.34,25.49,36.186,2.043,78.654,32.066,1019.65,239.700,18.100,241.000,3.603,355.21,2,-9.00,9,-9.00,0.09,11.55,75.47,21.2,230.36
AOML_Explorer,Ex0707W,43.207,12022007,4:57:22,24.407,-80.903,362.62,-9.00,1019.71,1017.40,25.32,25.47,36.194,2.047,79.177,32.070,1019.71,240.400,18.300,167.000,1.029,354.68,2,-9.00,9,-9.00,0.09,10.42,59.02,21.32,230.34
AOML_Explorer,Ex0707W,43.208,12022007,4:59:55,24.400,-80.916,362.28,-9.00,1019.69,1017.40,25.30,25.44,36.208,2.034,78.870,32.070,1019.69,239.500,18.500,138.000,1.544,354.13,2,-9.00,9,-9.00,0.08,10.71,53.78,21.4,230.45
AOML_Explorer,Ex0707W,43.223,12022007,5:21:40,24.360,-81.030,362.82,-9.00,1019.56,1017.30,25.28,25.45,36.243,2.057,78.647,32.084,1019.56,248.700,18.500,195.000,0.000,355.15,2,-9.00,9,-9.00,0.08,9.52,68.70,21.47,229.83
AOML_Explorer,Ex0707W,43.225,12022007,5:24:13,24.355,-81.044,362.38,-9.00,1019.47,1017.20,25.27,25.44,36.246,2.024,78.647,32.079,1019.47,249.600,18.700,95.000,1.029,354.60,2,-9.00,9,-9.00,0.08,9.76,63.57,21.57,229.75
AOML_Explorer,Ex0707W,43.227,12022007,5:26:46,24.350,-81.057,361.78,-9.00,1019.38,1017.10,25.26,25.45,36.237,2.055,78.944,32.073,1019.38,248.900,18.600,201.000,1.544,354.31,2,-9.00,9,-9.00,0.08,11.03,71.77,21.58,229.94
AOML_Explorer,Ex0707W,43.229,12022007,5:29:19,24.346,-81.071,361.50,-9.00,1019.36,1017.10,25.26,25.49,36.234,2.045,78.863,32.064,1019.36,249.400,18.700,169.000,1.029,354.54,2,-9.00,9,-9.00,0.08,10.64,68.30,21.63,229.95
AOML_Explorer,Ex0707W,43.230,12022007,5:31:52,24.340,-81.084,361.17,-9.00,1019.30,1017.00,25.27,25.52,36.231,2.033,78.636,32.053,1019.30,243.300,18.800,271.000,1.544,354.48,2,-9.00,9,-9.00,0.08,9.78,72.39,21.75,229.73
AOML_Explorer,Ex0707W,43.232,12022007,5:34:25,24.334,-81.097,361.61,-9.00,1019.19,1016.80,25.30,25.56,36.229,2.028,78.842,32.048,1019.19,236.500,19.000,263.000,3.603,355.12,2,-9.00,9,-9.00,0.08,10.78,76.02,21.85,229.87
AOML_Explorer,Ex0707W,43.234,12022007,5:36:58,24.326,-81.109,362.09,-9.00,1019.17,1016.70,25.33,25.62,36.221,2.030,78.812,32.044,1019.17,233.200,18.900,257.000,4.118,355.82,2,-9.00,9,-9.00,0.11,11.29,74.24,21.95,229.34
AOML_Explorer,Ex0707W,43.236,12022007,5:39:31,24.318,-81.121,362.73,-9.00,1019.15,1016.70,25.38,25.63,36.223,2.030,78.435,32.037,1019.15,233.500,18.900,249.000,3.603,355.96,2,-9.00,9,-9.00,0.10,11.46,70.72,21.97,228.98
AOML_Explorer,Ex0707W,43.238,12022007,5:42:04,24.310,-81.132,364.29,-9.00,1019.10,1016.70,25.41,25.67,36.218,2.039,78.603,32.032,1019.10,233.900,18.700,248.000,3.088,357.45,2,-9.00,9,-9.00,0.09,11.11,68.96,22,229.16
AOML_Explorer,Ex0707W,43.239,12022007,5:44:37,24.302,-81.144,364.97,-9.00,1019.10,1016.80,25.43,25.71,36.206,2.029,78.505,32.029,1019.10,233.300,18.700,279.000,2.059,358.51,2,-9.00,9,-9.00,0.10,9.48,65.64,22.14,228.87
AOML_Explorer,Ex0707W,43.241,12022007,5:47:10,24.295,-81.156,365.12,-9.00,1019.19,1016.80,25.47,25.75,36.209,2.042,78.845,32.025,1019.19,237.100,18.700,274.000,2.574,358.60,2,-9.00,9,-9.00,0.11,9.77,72.22,22.06,228.00
AOML_Explorer,Ex0707W,43.243,12022007,5:49:43,24.288,-81.168,365.63,-9.00,1019.19,1016.90,25.51,25.74,36.215,2.039,78.410,32.021,1019.19,236.600,18.600,276.000,3.088,358.48,2,-9.00,9,-9.00,0.12,9.71,75.01,22.02,227.80
AOML_Explorer,Ex0707W,43.245,12022007,5:52:16,24.280,-81.180,366.92,-9.00,1019.21,1016.90,25.53,25.72,36.211,2.060,79.258,32.019,1019.21,236.300,18.600,197.000,3.603,359.11,2,-9.00,9,-9.00,0.11,13.04,61.27,22.18,227.77
AOML_Explorer,Ex0707W,43.246,12022007,5:54:49,24.273,-81.192,367.36,-9.00,1019.19,1016.90,25.52,25.71,36.209,2.055,78.004,32.016,1019.19,237.000,18.500,203.000,3.088,359.51,2,-9.00,9,-9.00,0.10,12.42,62.60,22.12,227.96
AOML_Explorer,Ex0707W,43.248,12022007,5:57:22,24.266,-81.205,367.33,-9.00,1019.12,1016.80,25.51,25.70,36.209,2.032,78.649,32.011,1019.12,236.800,18.500,293.000,3.088,359.44,2,-9.00,9,-9.00,0.10,8.79,75.67,22.32,228.12
AOML_Explorer,Ex0707W,43.250,12022007,5:59:55,24.259,-81.217,367.09,-9.00,1019.04,1016.70,25.50,25.67,36.203,2.041,78.621,32.010,1019.04,237.200,18.800,218.000,1.544,358.91,2,-9.00,9,-9.00,0.11,10.94,62.08,22.24,228.19
AOML_Explorer,Ex0707W,43.265,12022007,6:21:40,24.214,-81.331,366.21,-9.00,1018.69,1016.40,25.52,25.71,36.211,2.009,77.963,32.036,1018.69,250.900,18.800,206.000,3.088,358.27,2,-9.00,9,-9.00,0.08,12.62,76.56,22.41,229.15
AOML_Explorer,Ex0707W,43.267,12022007,6:24:13,24.210,-81.345,365.91,-9.00,1018.61,1016.30,25.51,25.69,36.210,2.050,78.038,32.030,1018.61,250.800,18.700,218.000,3.603,357.73,2,-9.00,9,-9.00,0.08,12.71,80.42,22.29,229.17
AOML_Explorer,Ex0707W,43.269,12022007,6:26:46,24.206,-81.359,365.87,-9.00,1018.67,1016.40,25.50,25.66,36.216,2.017,78.282,32.027,1018.67,251.100,18.800,259.000,1.544,357.42,2,-9.00,9,-9.00,0.08,10.14,79.62,22.46,229.36
AOML_Explorer,Ex0707W,43.270,12022007,6:29:19,24.201,-81.373,365.53,-9.00,1018.70,1016.50,25.48,25.65,36.230,2.027,78.382,32.021,1018.70,251.200,18.900,290.000,0.515,357.25,2,-9.00,9,-9.00,0.09,9.58,74.13,22.6,229.46
AOML_Explorer,Ex0707W,43.272,12022007,6:31:52,24.197,-81.386,365.13,-9.00,1018.69,1016.40,25.45,25.65,36.233,2.023,78.254,32.015,1018.69,249.700,19.000,249.000,2.059,357.29,2,-9.00,9,-9.00,0.09,10.76,79.83,22.52,229.22
AOML_Explorer,Ex0707W,43.274,12022007,6:34:25,24.192,-81.400,365.02,-9.00,1018.66,1016.40,25.45,25.66,36.232,2.009,78.556,32.010,1018.66,246.500,18.900,241.000,3.603,357.32,2,-9.00,9,-9.00,0.09,11.96,81.44,22.6,229.05
AOML_Explorer,Ex0707W,43.276,12022007,6:36:58,24.187,-81.413,365.09,-9.00,1018.59,1016.40,25.45,25.66,36.234,2.016,78.207,32.006,1018.59,244.300,18.800,232.000,1.544,357.30,2,-9.00,9,-9.00,0.08,10.74,70.71,22.6,228.99
AOML_Explorer,Ex0707W,43.277,12022007,6:39:31,24.180,-81.426,365.32,-9.00,1018.58,1016.30,25.46,25.66,36.215,2.024,78.141,32.004,1018.58,242.300,18.900,260.000,2.059,357.56,2,-9.00,9,-9.00,0.08,10.35,73.63,22.66,229.22
AOML_Explorer,Ex0707W,43.279,12022007,6:42:04,24.174,-81.439,365.11,-9.00,1018.44,1016.20,25.45,25.66,36.214,2.027,78.184,32.000,1018.44,242.200,18.900,252.000,3.603,357.38,2,-9.00,9,-9.00,0.09,11.45,79.54,22.71,229.17
AOML_Explorer,Ex0707W,43.281,12022007,6:44:37,24.168,-81.452,364.94,-9.00,1018.28,1016.00,25.46,25.67,36.214,1.999,78.250,31.998,1018.28,242.600,18.900,234.000,5.147,357.15,2,-9.00,9,-9.00,0.09,13.50,79.97,22.68,229.24